Location: Paderno d�Adda
(45.6667°N, 9.4333°E)
Time: 01:08:21
(UTC+00:00)

Meteor 1-21 - Pass Details

Date: 19 September 2020
Orbit: 845 x 887 km, 81.2° (Epoch: 26 October)

Event Time Altitude Azimuth Distance (km) Brightness Sun altitude
Rises 18:06:06 0° 349° (N) 3,428 7.7 -8.0°
Reaches altitude 10° 18:08:32 10° 351° (N) 2,485 6.9 -8.4°
Maximum altitude 18:14:11 83° 80° (E) 858 4.2 -9.4°
Drops below altitude 10° 18:19:46 10° 168° (SSE) 2,460 6.4 -10.3°
Sets 18:22:10 0° 169° (S) 3,392 7.1 -10.7°
